• en Belgique
  • Liste des pays
  • À 7 jours
  • Température de l'eau
  • Carte satellitaire
  • Carte météo
  • Widgets météo
  • user-avatar
    Se connecter

    Météo par heure à Knokke-Heist

    Ce jour, 24 Mai, Jeudi

    Heure Température Précipitation Vent Pression Humidité
    00:00 +15°C° 0 mm 4 m/s 764 mmHg 89%
    01:00 +15°C° 0,1 mm 4 m/s 764 mmHg 89%
    02:00 +15°C° 0,1 mm 4 m/s 764 mmHg 90%
    03:00 +15°C° 0,1 mm 4 m/s 764 mmHg 91%
    04:00 +15°C° 0 mm 4 m/s 764 mmHg 88%
    05:00 +17°C° 0 mm 4 m/s 764 mmHg 86%
    06:00 +17°C° 0 mm 4 m/s 764 mmHg 81%
    07:00 +19°C° 0 mm 4 m/s 764 mmHg 77%
    08:00 +20°C° 0 mm 4 m/s 763 mmHg 73%
    09:00 +21°C° 0 mm 4 m/s 763 mmHg 69%
    10:00 +22°C° 0,3 mm 5 m/s 763 mmHg 68%
    11:00 +23°C° 0,3 mm 5 m/s 763 mmHg 67%
    12:00 +23°C° 0,3 mm 5 m/s 762 mmHg 67%
    13:00 +23°C° 0,9 mm 5 m/s 762 mmHg 69%
    14:00 +22°C° 0,9 mm 4 m/s 762 mmHg 72%
    15:00 +22°C° 0,9 mm 4 m/s 761 mmHg 74%
    16:00 +22°C° 0,5 mm 4 m/s 761 mmHg 76%
    17:00 +21°C° 0,5 mm 4 m/s 761 mmHg 79%
    18:00 +21°C° 0,5 mm 4 m/s 761 mmHg 81%
    19:00 +20°C° 0 mm 3 m/s 761 mmHg 84%
    20:00 +19°C° 0 mm 3 m/s 761 mmHg 87%
    21:00 +18°C° 0 mm 3 m/s 761 mmHg 90%
    22:00 +17°C° 0 mm 2 m/s 761 mmHg 91%
    23:00 +17°C° 0 mm 2 m/s 761 mmHg 92%

    Demain, 25 Mai, Vendredi

    Heure Température Précipitation Vent Pression Humidité
    00:00 +16°C° 0 mm 2 m/s 761 mmHg 93%
    01:00 +16°C° 0 mm 2 m/s 761 mmHg 93%
    02:00 +16°C° 0 mm 2 m/s 761 mmHg 94%
    03:00 +15°C° 0 mm 2 m/s 761 mmHg 94%
    04:00 +16°C° 0 mm 2 m/s 761 mmHg 93%
    05:00 +16°C° 0 mm 2 m/s 761 mmHg 91%
    06:00 +17°C° 0 mm 2 m/s 761 mmHg 89%
    07:00 +18°C° 0 mm 2 m/s 762 mmHg 84%
    08:00 +20°C° 0 mm 2 m/s 762 mmHg 78%
    09:00 +21°C° 0 mm 2 m/s 762 mmHg 73%
    10:00 +23°C° 0 mm 2 m/s 762 mmHg 70%
    11:00 +24°C° 0 mm 2 m/s 762 mmHg 66%
    12:00 +25°C° 0 mm 2 m/s 762 mmHg 63%
    13:00 +25°C° 0 mm 2 m/s 762 mmHg 64%
    14:00 +25°C° 0 mm 3 m/s 762 mmHg 65%
    15:00 +25°C° 0 mm 3 m/s 762 mmHg 66%
    16:00 +24°C° 0 mm 3 m/s 762 mmHg 70%
    17:00 +22°C° 0 mm 3 m/s 762 mmHg 74%
    18:00 +21°C° 0 mm 3 m/s 762 mmHg 78%
    19:00 +19°C° 0 mm 3 m/s 763 mmHg 81%
    20:00 +18°C° 0 mm 2 m/s 763 mmHg 83%
    21:00 +17°C° 0 mm 2 m/s 763 mmHg 85%
    22:00 +17°C° 0 mm 2 m/s 763 mmHg 85%
    23:00 +17°C° 0 mm 2 m/s 763 mmHg 85%

    Après-demain, 26 Mai, Samedi

    Heure Température Précipitation Vent Pression Humidité
    00:00 +16°C° 0 mm 2 m/s 763 mmHg 85%
    01:00 +16°C° 0 mm 2 m/s 763 mmHg 87%
    02:00 +16°C° 0 mm 2 m/s 763 mmHg 88%
    03:00 +16°C° 0 mm 3 m/s 763 mmHg 90%
    04:00 +17°C° 0 mm 3 m/s 763 mmHg 89%
    05:00 +18°C° 0 mm 3 m/s 763 mmHg 87%
    06:00 +19°C° 0 mm 3 m/s 764 mmHg 86%
    07:00 +21°C° 0 mm 4 m/s 764 mmHg 81%
    08:00 +22°C° 0 mm 4 m/s 764 mmHg 76%
    09:00 +25°C° 0 mm 5 m/s 764 mmHg 71%
    10:00 +26°C° 0 mm 5 m/s 764 mmHg 67%
    11:00 +27°C° 0 mm 5 m/s 764 mmHg 63%
    12:00 +28°C° 0 mm 5 m/s 764 mmHg 59%
    13:00 +28°C° 0 mm 6 m/s 763 mmHg 58%
    14:00 +29°C° 0 mm 6 m/s 763 mmHg 57%
    15:00 +29°C° 0 mm 6 m/s 763 mmHg 56%
    16:00 +28°C° 0 mm 6 m/s 763 mmHg 60%
    17:00 +27°C° 0 mm 6 m/s 763 mmHg 64%
    18:00 +27°C° 0 mm 6 m/s 763 mmHg 67%
    19:00 +24°C° 0 mm 6 m/s 763 mmHg 68%
    20:00 +23°C° 0 mm 6 m/s 764 mmHg 68%
    21:00 +22°C° 0 mm 6 m/s 764 mmHg 69%
    22:00 +22°C° 0 mm 7 m/s 764 mmHg 69%
    23:00 +21°C° 0 mm 7 m/s 763 mmHg 69%

    27 Mai, Dimanche

    Heure Température Précipitation Vent Pression Humidité
    00:00 +21°C° 0 mm 7 m/s 763 mmHg 69%
    01:00 +20°C° 0 mm 6 m/s 763 mmHg 72%
    02:00 +20°C° 0 mm 6 m/s 763 mmHg 75%
    03:00 +19°C° 0 mm 6 m/s 763 mmHg 78%
    04:00 +19°C° 0 mm 6 m/s 763 mmHg 77%
    05:00 +20°C° 0 mm 7 m/s 762 mmHg 77%
    06:00 +20°C° 0 mm 7 m/s 762 mmHg 77%
    07:00 +21°C° 0 mm 7 m/s 762 mmHg 73%
    08:00 +23°C° 0 mm 7 m/s 762 mmHg 69%
    09:00 +24°C° 0 mm 7 m/s 762 mmHg 65%
    10:00 +26°C° 0,2 mm 7 m/s 762 mmHg 63%
    11:00 +28°C° 0,2 mm 7 m/s 762 mmHg 61%
    12:00 +29°C° 0,2 mm 7 m/s 762 mmHg 58%
    13:00 +29°C° 0,8 mm 6 m/s 761 mmHg 60%
    14:00 +29°C° 0,8 mm 5 m/s 761 mmHg 61%
    15:00 +28°C° 0,8 mm 5 m/s 761 mmHg 62%
    16:00 +28°C° 0,7 mm 5 m/s 761 mmHg 65%
    17:00 +27°C° 0,7 mm 4 m/s 761 mmHg 67%
    18:00 +26°C° 0,7 mm 4 m/s 761 mmHg 70%
    19:00 +25°C° 0,5 mm 4 m/s 761 mmHg 72%
    20:00 +23°C° 0,5 mm 4 m/s 761 mmHg 75%
    21:00 +22°C° 0,5 mm 4 m/s 761 mmHg 77%
    22:00 +21°C° 0 mm 4 m/s 761 mmHg 80%
    23:00 +20°C° 0 mm 4 m/s 761 mmHg 82%

    28 Mai, Lundi

    Heure Température Précipitation Vent Pression Humidité
    00:00 +19°C° 0 mm 4 m/s 761 mmHg 84%
    01:00 +19°C° 0,1 mm 4 m/s 761 mmHg 85%
    02:00 +19°C° 0,1 mm 3 m/s 761 mmHg 86%
    03:00 +18°C° 0,1 mm 3 m/s 760 mmHg 87%
    04:00 +19°C° 0,3 mm 3 m/s 761 mmHg 86%
    05:00 +20°C° 0,3 mm 3 m/s 761 mmHg 85%
    06:00 +20°C° 0,3 mm 4 m/s 761 mmHg 84%
    07:00 +21°C° 0,2 mm 3 m/s 761 mmHg 83%
    08:00 +22°C° 0,2 mm 3 m/s 761 mmHg 82%
    09:00 +24°C° 0,2 mm 2 m/s 761 mmHg 81%
    10:00 +24°C° 0 mm 3 m/s 761 mmHg 78%
    11:00 +25°C° 0 mm 3 m/s 760 mmHg 76%
    12:00 +26°C° 0 mm 3 m/s 760 mmHg 73%
    13:00 +26°C° 0,4 mm 3 m/s 760 mmHg 73%
    14:00 +26°C° 0,4 mm 4 m/s 759 mmHg 74%
    15:00 +26°C° 0,4 mm 4 m/s 759 mmHg 74%
    16:00 +25°C° 1 mm 4 m/s 759 mmHg 75%
    17:00 +25°C° 1 mm 4 m/s 759 mmHg 77%
    18:00 +23°C° 1 mm 4 m/s 759 mmHg 78%
    19:00 +22°C° 0,5 mm 4 m/s 759 mmHg 80%
    20:00 +22°C° 0,5 mm 4 m/s 759 mmHg 82%
    21:00 +21°C° 0,5 mm 4 m/s 759 mmHg 84%
    22:00 +20°C° 0 mm 4 m/s 759 mmHg 86%
    23:00 +20°C° 0 mm 4 m/s 759 mmHg 87%

    29 Mai, Mardi

    Heure Température Précipitation Vent Pression Humidité
    00:00 +20°C° 0 mm 4 m/s 759 mmHg 89%
    01:00 +20°C° 0 mm 4 m/s 758 mmHg 89%
    02:00 +19°C° 0 mm 3 m/s 758 mmHg 90%
    03:00 +19°C° 0 mm 3 m/s 758 mmHg 90%
    04:00 +20°C° 0 mm 4 m/s 758 mmHg 89%
    05:00 +20°C° 0 mm 4 m/s 758 mmHg 88%
    06:00 +20°C° 0 mm 4 m/s 758 mmHg 87%
    07:00 +21°C° 0,1 mm 4 m/s 759 mmHg 83%
    08:00 +22°C° 0,1 mm 4 m/s 759 mmHg 79%
    09:00 +23°C° 0,1 mm 4 m/s 759 mmHg 75%
    10:00 +25°C° 0,2 mm 3 m/s 759 mmHg 71%
    11:00 +26°C° 0,2 mm 3 m/s 759 mmHg 68%
    12:00 +27°C° 0,2 mm 3 m/s 759 mmHg 64%
    13:00 +27°C° 0,3 mm 3 m/s 759 mmHg 65%
    14:00 +26°C° 0,3 mm 3 m/s 758 mmHg 66%
    15:00 +26°C° 0,3 mm 3 m/s 758 mmHg 67%
    16:00 +26°C° 0,5 mm 2 m/s 758 mmHg 70%
    17:00 +25°C° 0,5 mm 2 m/s 758 mmHg 74%
    18:00 +25°C° 0,5 mm 2 m/s 758 mmHg 77%
    19:00 +23°C° 0,1 mm 2 m/s 759 mmHg 81%
    20:00 +22°C° 0,1 mm 1 m/s 759 mmHg 85%
    21:00 +20°C° 0,1 mm 1 m/s 759 mmHg 90%
    22:00 +20°C° 0 mm 1 m/s 759 mmHg 91%
    23:00 +20°C° 0 mm 1 m/s 759 mmHg 91%
    Voir plus